Flag for Mongolia Weather past 2 weeks in Ulaanbaatar, Mongolia

Now
61 °F

Passing clouds.


Feels Like: 61 °F
Forecast: 43 / 63 °F
Wind: 8 mph from Southeast

Location: Ulan-Bator

Current Time: Sep 17, 2014 at 9:54:02 PM

Latest Report: Sep 17, 2014 at 9:30 PM


Visibility: N/A

Pressure: 30.04 "Hg

Humidity: 22%

Dew point: 21 °F

Location of UlaanbaatarLocation

Historic Weather in Ulaanbaatar — Graph

°F

Ulaanbaatar temperature yesterday

Maximum temperature yesterday: 68 °F (at 3:30 PM)
Minimum temperature yesterday: 25 °F (at 7:00 AM)
Average temperature yesterday: 47 °F

Past Weeks' High & Low Weather Summary

 TemperatureHumidityPressure
High88 °F (Sep 3, 4:00 PM)94% (Sep 6, 6:30 AM)30.24 "Hg (Sep 6, 6:30 AM)
Low21 °F (Sep 15, 6:00 AM)9% (Sep 3, 4:00 PM)29.68 "Hg (Sep 4, 5:00 PM)
Average51 °F57%29.95 "Hg
* Reported Sep 2 8:00 PM — Sep 17 8:30 PM, Ulaanbaatar, Weather by CustomWeather, © 2014

Note: Actual official high and low records may vary slightly from our data, if they occured in-between our weather recording intervals... More about our weather records

Advertising

Ulaanbaatar weather history for previous 24 hours

 ConditionsComfort  
Time TempWeatherWind HumidityBarometerVisibility
8:30 PM
Sep 17
59 °FPassing clouds.8 mph23%30.04 "HgN/A
8:00 PM59 °FPartly sunny.6 mph25%30.04 "HgN/A
7:30 PM59 °FPartly sunny.8 mph27%30.04 "HgN/A
7:00 PM63 °FPartly sunny.6 mph22%30.04 "HgN/A
6:30 PM64 °FScattered clouds.6 mph21%30.04 "HgN/A
6:00 PM66 °FScattered clouds.6 mph18%30.04 "HgN/A
5:30 PM68 °FPartly sunny.8 mph17%30.04 "HgN/A
5:00 PM68 °FPartly sunny.8 mph16%30.04 "HgN/A
4:30 PM70 °FPartly sunny.13 mph15%30.04 "HgN/A
4:00 PM70 °FPartly sunny.8 mph16%30.04 "HgN/A
3:30 PM70 °FPartly sunny.10 mph17%30.04 "HgN/A
3:00 PM70 °FPartly sunny.8 mph16%30.07 "HgN/A
2:30 PM70 °FPartly sunny.10 mph17%30.07 "HgN/A
2:00 PM70 °FPartly sunny.10 mph17%30.07 "HgN/A
1:30 PM70 °FPartly sunny.13 mph16%30.09 "HgN/A
1:00 PM68 °FPartly sunny.15 mph17%30.09 "HgN/A
12:30 PM68 °FPartly sunny.13 mph18%30.09 "HgN/A
12:00 PM66 °FPartly sunny.3 mph24%30.09 "HgN/A
11:30 AM61 °FPartly sunny.1 mph31%30.12 "HgN/A
11:00 AM57 °FPartly sunny.1 mph33%30.12 "HgN/A
10:30 AM54 °FPartly sunny.No wind41%30.12 "HgN/A
10:00 AM50 °FSunny.1 mph43%30.12 "Hg10 mi
9:30 AM46 °FSunny.No wind50%30.12 "Hg10 mi
9:00 AM45 °FSunny.No wind53%30.12 "Hg10 mi
8:30 AM41 °FSunny.No wind61%30.12 "Hg10 mi
8:00 AM37 °FSunny.No wind70%30.12 "Hg10 mi
7:30 AM32 °FClear.No wind80%30.12 "Hg10 mi
7:00 AM28 °FClear.No wind86%30.12 "Hg10 mi
6:30 AM30 °FClear.No wind80%30.12 "Hg10 mi
6:00 AM30 °FClear.No wind86%30.12 "Hg10 mi
5:30 AM28 °FClear.No wind86%30.09 "Hg10 mi
5:00 AM28 °FClear.1 mph86%30.09 "Hg10 mi
4:30 AM30 °FClear.1 mph80%30.09 "Hg10 mi
4:00 AM32 °FClear.No wind80%30.09 "Hg10 mi
3:00 AM32 °FClear.No wind80%30.09 "Hg10 mi
2:00 AM32 °FClear.No wind80%30.09 "Hg10 mi
1:00 AM34 °FClear.No wind75%30.09 "Hg10 mi
12:30 AM37 °FClear.No wind65%30.09 "Hg10 mi
12:00 AM36 °FClear.No wind65%30.09 "Hg10 mi
11:30 PM
Sep 16
37 °FClear.No wind60%30.09 "Hg10 mi
11:00 PM41 °FClear.1 mph53%30.09 "Hg10 mi
10:30 PM41 °FClear.1 mph49%30.07 "Hg10 mi
10:00 PM43 °FClear.1 mph49%30.07 "Hg10 mi
9:30 PM43 °FClear.1 mph49%30.07 "Hg10 mi
9:00 PM48 °FClear.1 mph40%30.07 "Hg10 mi
Weather by CustomWeather, © 2014

See weather overviewHow to use our weather pages